User: anonymous
Location: Unspecified
(0.0000°N, 0.0000°E)
Time: 08:45:44
(UTC+00:00)
Language:

ISS - Orbit

View from above orbital plane
View from above orbital plane
View from above satellite
View from above satellite

Ground track
Ground track

The orbit data is extracted from the following two-line orbital elements,

1 25544U 98067A   14106.16682005  .00021463  00000-0  38540-3 0   923
2 25544 051.6488 046.9339 0003764 291.2043 204.4723 15.49819860881706
Epoch (UTC): 16 April 2014 04:00:13
Eccentricity: 0.0003764
inclination: 51.6488°
perigee height: 415 km
apogee height: 420 km
right ascension of ascending node: 46.9339°
argument of perigee: 291.2043°
revolutions per day: 15.49819860
mean anomaly at epoch: 204.4723°
orbit number at epoch: 88170

The dashed part of the orbit path shows where the satellite is in the earth's shadow,  

DLR